Wind_Speed
71 75 76 77 79 76 77 79 83 86 84 86 85 83 84 88 84 83 85 82 82 81 76 74 69 67 64 62 60 60 57 52 47 38 37 33 30 25 18 9 11 16 18 17 16
65 67 72 73 68 71 71 70 69 70 70 71 71 74 76 77 81 82 82 86 85 83 78 72 70 68 66 62 60 58 54 47 40 38 36 32 26 19 13 17 21 20 16 16 18
60 61 65 65 69 66 63 62 61 63 64 63 62 63 67 66 65 72 77 82 83 81 76 73 73 69 65 62 58 57 51 43 39 37 35 26 24 19 22 24 23 18 21 22 23
57 58 57 59 57 57 56 56 57 55 56 58 58 58 59 60 60 62 62 67 69 73 74 75 71 67 64 61 55 53 44 42 41 38 35 25 26 23 27 24 25 25 25 25 27
54 55 54 53 51 50 50 50 52 52 54 55 56 55 55 55 56 55 60 60 58 60 65 68 69 66 61 59 54 45 42 44 42 38 35 25 33 26 30 27 30 29 30 30 30
53 54 55 52 50 49 46 46 49 50 51 54 52 50 51 51 52 54 55 57 55 52 54 57 60 59 54 52 48 44 48 47 44 39 32 29 34 34 33 31 33 33 34 34 33
53 52 53 53 52 49 47 46 47 47 48 46 45 45 47 48 50 53 54 55 54 51 49 48 50 51 52 50 46 50 51 49 45 41 31 36 34 37 36 34 37 37 37 37 37
53 52 54 52 51 49 48 47 46 44 41 40 39 38 40 43 46 50 54 54 53 51 48 47 47 48 47 50 52 52 52 50 45 41 36 35 36 43 41 38 40 41 41 41 41
53 52 54 52 49 49 47 46 42 41 37 35 34 33 34 38 43 48 52 54 53 52 50 48 47 48 49 52 55 51 53 48 45 41 39 33 42 46 47 44 43 45 46 46 45
53 53 53 54 48 47 46 44 41 40 34 32 30 29 32 34 39 45 50 54 55 53 51 51 50 48 52 56 54 51 52 50 48 43 40 42 49 47 48 48 47 48 51 50 50
55 54 54 53 48 48 46 44 42 39 33 30 28 28 26 30 37 43 48 52 53 53 53 52 49 51 56 58 52 49 52 52 49 47 43 43 48 51 53 52 50 50 52 55 54
53 54 53 54 49 48 47 45 43 40 34 30 27 28 26 29 35 41 46 50 52 55 54 53 55 55 56 54 49 50 54 55 53 50 49 49 51 51 54 53 53 52 54 57 59
52 53 53 55 53 48 48 47 43 41 34 30 27 28 28 29 35 39 44 48 52 53 54 54 55 55 56 53 49 52 55 56 57 56 51 52 54 54 54 55 55 56 57 59 62
52 54 54 54 56 52 52 49 45 42 36 33 29 28 30 32 35 39 43 47 50 53 55 56 57 58 57 52 54 55 57 57 56 63 56 60 56 53 55 57 57 58 61 62 64
52 55 55 54 57 57 55 51 49 45 37 34 32 32 33 34 39 41 45 48 51 52 54 58 58 58 55 55 54 55 58 61 60 65 64 59 60 56 59 57 60 65 67 67 67
51 55 56 56 58 60 59 54 52 47 39 37 36 35 35 39 42 45 47 49 52 53 56 55 58 58 57 57 57 57 61 63 63 67 60 62 65 62 61 59 67 69 70 71 72
52 55 58 60 61 62 62 60 55 47 45 41 42 43 40 43 46 47 50 53 55 55 55 56 59 58 57 57 58 60 62 65 67 66 59 68 69 59 64 66 71 73 75 76 77
51 58 59 62 62 61 62 62 58 53 48 46 49 46 46 46 49 52 53 53 56 57 58 57 57 59 57 59 60 63 66 67 67 65 66 70 69 60 68 72 73 75 78 80 81
49 57 60 63 64 63 63 60 59 58 52 54 52 51 49 52 52 54 55 54 54 58 59 59 58 60 62 62 63 65 64 69 69 70 71 71 71 69 71 73 76 79 81 83 84
46 55 61 63 66 66 66 65 62 61 59 58 58 56 52 53 54 55 57 56 59 59 60 61 60 63 65 66 66 65 69 71 72 74 75 74 75 73 74 77 79 80 82 86 88
38 49 58 63 65 66 67 66 67 66 65 64 60 61 58 54 57 56 53 57 61 62 62 63 62 62 64 64 66 68 70 73 74 76 78 79 78 75 77 80 82 84 86 88 90
36 41 50 59 65 68 69 68 70 70 69 66 65 62 61 60 59 55 57 60 61 63 63 65 65 63 64 69 69 70 71 73 76 78 80 82 80 79 82 83 85 87 89 91 93
33 40 44 49 62 67 70 72 72 73 72 70 68 65 63 64 63 61 61 62 63 65 65 67 66 67 69 70 70 72 75 76 79 80 81 83 80 85 86 88 89 90 92 93 95
31 36 42 46 50 60 68 72 75 75 75 75 72 72 71 68 68 68 66 66 66 66 67 70 71 71 72 73 75 76 78 80 82 84 85 86 86 88 90 92 93 94 95 97 99
33 36 40 43 47 51 57 68 74 79 77 79 79 77 75 73 72 70 71 73 73 71 71 71 71 72 73 75 78 80 82 83 85 88 90 90 91 92 94 96 97 99 100 102 104
33 35 40 43 44 46 52 57 66 74 81 82 83 83 82 79 76 75 74 74 74 76 78 78 79 80 80 80 81 83 84 86 88 91 92 93 94 96 96 98 99 101 103 104 106
34 35 38 44 47 47 50 53 59 66 74 81 85 84 85 84 84 83 81 81 80 81 81 80 81 82 83 86 87 87 88 90 92 94 95 97 99 101 103 104 105 107 109 111 113
Wind_Direction
256 254 252 253 251 253 253 258 256 255 258 256 259 258 257 258 252 252 247 248 249 247 246 248 249 252 256 259 264 265 270 275 279 277 271 273 276 267 256 271 268 254 246 240 223
252 251 252 252 250 251 252 255 254 256 256 256 255 252 253 254 250 249 248 245 246 245 245 246 249 251 254 257 262 264 267 273 267 264 264 271 268 262 264 242 237 233 230 213 198
249 247 248 248 248 251 251 251 253 256 256 255 253 253 253 251 249 245 244 247 245 243 245 244 247 250 253 257 260 262 265 262 260 255 257 257 258 246 245 237 230 228 218 208 204
247 245 245 244 245 246 249 249 254 253 254 254 255 252 252 250 246 242 238 242 244 243 242 242 245 248 251 255 258 261 260 254 251 249 250 243 250 243 247 240 229 216 217 214 209
244 244 243 242 243 244 248 250 253 255 256 256 257 255 252 250 245 241 234 235 238 239 241 241 242 246 248 252 255 252 245 245 246 245 245 237 242 241 245 242 229 219 216 216 213
241 242 241 241 240 242 246 248 252 256 258 259 256 253 252 249 243 236 234 229 231 235 237 239 241 243 243 244 245 240 238 242 243 242 237 235 240 235 237 238 228 222 219 220 219
237 238 238 239 241 242 244 246 253 257 261 263 257 253 250 245 238 232 230 226 225 230 231 233 235 237 240 241 239 234 236 239 241 238 230 235 236 234 236 237 229 227 225 225 225
233 233 234 236 240 241 242 246 253 258 264 262 257 256 250 241 232 226 223 221 221 224 227 227 230 231 233 229 230 233 237 237 240 238 232 233 236 234 234 237 232 230 230 229 229
229 229 230 233 237 241 243 248 252 256 263 259 264 259 248 234 225 220 218 217 218 221 225 226 228 229 228 227 230 236 238 235 235 235 232 232 236 234 235 237 237 235 232 231 232
225 227 227 229 235 239 241 243 249 256 261 259 265 258 242 229 220 216 215 216 217 219 222 225 226 226 225 228 234 237 240 235 231 232 232 233 235 235 237 240 240 239 236 234 234
224 224 224 226 231 235 237 241 249 254 256 258 262 252 240 226 217 214 212 213 215 217 221 223 225 222 224 231 234 239 240 234 234 231 232 234 238 237 239 241 240 239 238 237 236
223 223 224 221 226 232 236 241 243 249 251 255 255 246 235 223 216 212 210 210 212 216 219 219 219 222 225 234 236 240 235 234 232 233 232 235 238 240 240 243 242 240 240 239 238
224 222 222 223 221 229 233 236 238 243 246 248 249 240 230 222 214 210 209 210 212 215 216 218 222 224 228 233 235 237 235 234 232 235 232 238 238 240 241 243 244 244 242 242 240
227 223 221 221 223 225 231 232 235 238 240 244 243 239 227 220 216 211 210 211 211 213 216 217 222 225 230 232 234 237 237 238 234 237 232 237 239 241 243 244 245 244 244 242 243
226 224 222 221 223 226 230 234 234 235 235 240 238 236 229 221 217 214 212 213 214 217 218 220 225 226 232 234 236 238 239 239 236 236 237 237 241 242 244 245 247 246 245 245 246
222 224 223 222 221 224 228 231 235 232 232 236 235 232 228 224 221 218 216 216 219 221 222 224 228 230 232 234 234 237 239 241 241 240 243 241 242 241 246 247 247 248 250 249 249
223 222 222 224 223 224 224 227 231 232 232 233 235 230 227 225 225 223 221 220 222 224 226 228 231 233 235 237 237 239 242 243 244 244 244 243 242 242 245 245 249 250 251 252 252
223 223 221 223 226 227 230 230 225 228 230 233 235 233 228 228 226 225 224 225 226 228 230 231 235 236 237 238 239 240 241 244 246 247 245 246 249 247 244 245 247 250 253 254 255
225 224 222 221 225 227 228 229 232 226 227 232 233 238 233 230 230 229 230 230 232 232 232 235 234 238 239 240 241 242 243 245 246 247 247 248 249 247 249 248 248 250 252 253 254
229 225 224 222 224 226 229 226 227 229 227 231 234 233 235 235 234 233 232 232 236 236 236 236 235 238 241 241 242 244 245 246 247 248 249 249 249 250 250 251 251 252 253 254 256
233 229 227 225 224 225 227 229 226 227 228 231 231 234 234 236 237 236 236 236 238 239 240 241 239 241 243 245 246 245 246 249 250 250 251 252 252 252 252 253 254 254 255 256 256
239 232 230 227 225 226 226 227 227 228 231 232 232 232 234 236 238 239 238 238 240 241 242 243 243 243 246 247 249 250 250 251 253 254 254 255 255 256 255 255 256 256 257 258 259
249 239 233 230 228 227 226 227 228 228 231 232 234 235 235 237 239 238 239 240 241 243 244 246 246 245 246 249 251 252 253 253 254 255 256 257 257 257 257 257 257 257 258 259 261
255 247 238 233 231 230 229 228 228 229 230 233 233 235 236 235 238 238 239 242 242 244 244 245 247 247 248 249 250 252 253 255 256 257 258 258 258 258 259 259 260 260 260 260 260
259 252 244 238 236 233 232 231 229 229 230 232 234 235 236 239 241 241 242 243 243 245 247 249 250 251 251 252 252 254 255 256 256 257 258 259 259 260 260 260 261 262 262 262 263
260 255 248 244 239 237 235 232 232 231 231 232 234 236 236 237 239 242 244 245 245 245 246 247 248 249 249 251 252 254 255 258 259 261 262 263 264 264 265 265 265 265 265 265 265
265 256 251 248 244 238 238 236 233 233 233 234 234 237 239 240 240 241 243 246 247 249 250 250 251 253 254 255 256 258 260 261 263 264 264 265 265 266 266 266 266 266 267 266 266
Height
10557 10561 10566 10571 10574 10579 10583 10587 10591 10596 10601 10606 10612 10614 10619 10625 10629 10634 10638 10648 10648 10654 10661 10667 10670 10674 10675 10679 10683 10684 10686 10687 10687 10687 10688 10689 10690 10690 10691 10699 10699 10700 10701 10703 10706
10542 10545 10549 10555 10559 10564 10568 10572 10576 10580 10584 10588 10591 10596 10600 10606 10612 10614 10625 10627 10630 10640 10647 10656 10660 10663 10665 10670 10674 10675 10677 10681 10680 10680 10682 10685 10687 10688 10692 10693 10692 10695 10700 10703 10705
10527 10531 10535 10541 10546 10550 10554 10558 10562 10565 10568 10571 10575 10580 10584 10588 10594 10598 10605 10606 10617 10626 10635 10643 10647 10652 10655 10661 10665 10668 10670 10671 10672 10673 10677 10683 10681 10686 10685 10687 10688 10696 10697 10699 10702
10514 10518 10522 10528 10533 10538 10542 10545 10548 10551 10554 10557 10561 10565 10570 10574 10580 10583 10588 10592 10602 10611 10619 10628 10635 10641 10646 10650 10656 10660 10663 10662 10663 10666 10672 10677 10676 10680 10681 10684 10686 10691 10693 10696 10699
10499 10505 10511 10516 10521 10526 10530 10533 10537 10540 10543 10545 10548 10551 10554 10559 10564 10569 10573 10581 10589 10597 10604 10615 10624 10631 10635 10641 10647 10652 10652 10653 10656 10660 10667 10672 10668 10676 10677 10680 10683 10686 10689 10692 10695
10486 10492 10499 10506 10511 10516 10521 10524 10527 10529 10531 10532 10535 10537 10540 10544 10547 10554 10560 10569 10578 10586 10594 10602 10610 10618 10625 10630 10637 10643 10642 10644 10648 10653 10663 10665 10665 10669 10671 10675 10678 10681 10683 10687 10691
10473 10480 10487 10494 10500 10505 10511 10515 10517 10519 10520 10520 10522 10524 10526 10529 10535 10541 10549 10558 10568 10576 10584 10593 10600 10607 10614 10621 10627 10630 10631 10636 10641 10646 10659 10654 10661 10663 10667 10670 10673 10676 10678 10681 10685
10460 10467 10475 10483 10489 10495 10500 10504 10507 10510 10510 10510 10512 10512 10513 10517 10522 10529 10538 10547 10557 10567 10576 10582 10590 10597 10604 10608 10614 10620 10622 10627 10634 10640 10648 10650 10655 10657 10661 10664 10667 10670 10672 10675 10678
10448 10456 10464 10472 10479 10485 10490 10495 10498 10501 10502 10502 10502 10502 10503 10506 10511 10519 10528 10538 10549 10558 10567 10575 10582 10588 10594 10600 10606 10611 10612 10620 10624 10632 10637 10646 10646 10649 10652 10656 10659 10662 10665 10667 10670
10437 10445 10453 10462 10469 10475 10481 10486 10489 10492 10494 10495 10494 10495 10496 10499 10504 10511 10520 10529 10539 10549 10558 10565 10572 10579 10585 10591 10594 10600 10605 10611 10614 10622 10630 10636 10635 10641 10644 10648 10651 10653 10656 10660 10662
10425 10433 10442 10451 10460 10466 10472 10476 10481 10485 10487 10488 10488 10489 10491 10494 10499 10505 10513 10523 10533 10542 10549 10557 10565 10569 10573 10578 10589 10592 10595 10599 10606 10611 10620 10626 10628 10631 10633 10638 10641 10644 10648 10651 10654
10413 10423 10432 10441 10450 10456 10461 10467 10473 10477 10480 10482 10483 10484 10487 10490 10494 10500 10507 10516 10524 10531 10541 10549 10552 10560 10568 10573 10580 10582 10584 10588 10594 10599 10609 10612 10616 10621 10626 10629 10632 10635 10638 10640 10643
10403 10413 10422 10431 10439 10446 10451 10457 10464 10468 10472 10475 10478 10480 10483 10486 10490 10496 10502 10509 10517 10527 10532 10540 10546 10555 10559 10564 10569 10571 10573 10578 10583 10588 10600 10602 10605 10611 10616 10619 10622 10625 10627 10629 10632
10392 10402 10412 10421 10430 10435 10439 10447 10453 10460 10466 10469 10473 10476 10479 10482 10487 10491 10498 10504 10511 10516 10524 10532 10537 10543 10547 10554 10557 10561 10563 10568 10576 10574 10587 10584 10596 10603 10606 10610 10613 10615 10615 10616 10618
10383 10392 10401 10411 10418 10424 10429 10437 10444 10451 10459 10464 10467 10469 10473 10478 10479 10486 10490 10497 10504 10511 10518 10522 10527 10535 10540 10543 10549 10552 10554 10554 10560 10562 10568 10580 10583 10594 10593 10600 10603 10600 10601 10603 10605
10373 10381 10389 10398 10405 10412 10420 10428 10435 10443 10454 10457 10459 10462 10467 10470 10473 10478 10485 10490 10495 10501 10507 10516 10517 10523 10529 10531 10536 10541 10540 10542 10546 10548 10562 10567 10567 10578 10583 10590 10584 10585 10588 10590 10591
10364 10370 10378 10386 10392 10400 10406 10416 10425 10438 10442 10448 10449 10451 10457 10462 10465 10471 10476 10480 10486 10492 10499 10502 10506 10513 10518 10521 10526 10529 10529 10529 10532 10539 10554 10547 10548 10571 10571 10572 10567 10569 10571 10572 10574
10354 10360 10367 10374 10382 10391 10398 10405 10417 10424 10434 10438 10438 10442 10448 10452 10457 10460 10465 10472 10476 10482 10487 10494 10498 10500 10507 10510 10513 10513 10514 10517 10520 10528 10533 10530 10537 10558 10552 10551 10555 10554 10554 10555 10557
10344 10350 10357 10363 10370 10378 10387 10397 10406 10416 10423 10423 10427 10432 10439 10441 10445 10451 10457 10463 10470 10470 10476 10481 10488 10488 10491 10495 10498 10501 10507 10502 10508 10509 10512 10519 10524 10532 10534 10535 10536 10536 10536 10537 10539
10334 10339 10345 10351 10358 10367 10375 10382 10393 10402 10408 10409 10414 10420 10427 10431 10435 10440 10445 10454 10454 10459 10462 10468 10475 10475 10476 10480 10485 10490 10489 10488 10491 10494 10496 10502 10504 10514 10516 10516 10516 10517 10518 10517 10517
10324 10329 10333 10340 10347 10354 10361 10370 10380 10385 10391 10395 10405 10408 10414 10421 10422 10427 10439 10442 10441 10444 10449 10451 10460 10463 10464 10469 10471 10472 10473 10473 10475 10477 10479 10481 10489 10499 10499 10496 10496 10495 10496 10497 10497
10315 10317 10322 10328 10334 10341 10348 10357 10365 10371 10378 10385 10391 10395 10403 10405 10410 10419 10423 10423 10428 10431 10435 10436 10443 10451 10452 10449 10454 10457 10459 10460 10458 10461 10461 10461 10472 10478 10477 10478 10477 10475 10473 10473 10474
10305 10307 10310 10316 10321 10327 10334 10341 10349 10358 10365 10371 10377 10383 10389 10393 10397 10404 10406 10410 10413 10416 10420 10422 10429 10433 10435 10437 10440 10439 10438 10440 10440 10441 10444 10445 10457 10450 10451 10453 10454 10455 10454 10453 10451
10295 10297 10300 10304 10308 10314 10321 10328 10335 10342 10350 10355 10362 10366 10371 10376 10381 10387 10391 10394 10397 10400 10403 10405 10409 10414 10419 10420 10420 10421 10420 10421 10422 10422 10423 10426 10430 10428 10428 10428 10429 10430 10430 10429 10427
10287 10287 10289 10292 10295 10301 10306 10311 10318 10325 10332 10339 10345 10351 10356 10362 10367 10372 10375 10377 10381 10384 10386 10390 10393 10396 10399 10402 10403 10403 10403 10403 10402 10401 10399 10402 10404 10404 10403 10404 10404 10404 10404 10402 10400
10277 10278 10279 10279 10283 10288 10292 10295 10301 10308 10314 10320 10327 10332 10338 10344 10349 10353 10357 10360 10363 10366 10368 10370 10372 10373 10376 10380 10379 10381 10383 10383 10382 10380 10381 10381 10381 10378 10380 10379 10377 10377 10376 10373 10371
10267 10267 10268 10268 10270 10275 10277 10282 10286 10291 10296 10302 10309 10314 10319 10325 10330 10333 10338 10342 10346 10348 10351 10353 10355 10356 10362 10359 10361 10366 10365 10363 10361 10358 10357 10355 10353 10351 10349 10349 10349 10347 10344 10342 10340